User: anonymous   Login
Location: Muenchen
(48.1800°N, 11.5800°E)
Time: 19:49:26
(UTC+01:00)
Language:

Cosmos 2233 Rocket - Orbit

View from above orbital plane
View from above orbital plane
View from above satellite
View from above satellite

Ground track
Ground track

The orbit data is extracted from the following two-line orbital elements,

1 22488U 93008B   15087.17772728  .00000036  00000-0  20607-4 0  9994
2 22488 082.9437 322.6886 0025066 343.8478 130.2301 13.77664317112458
Epoch (UTC): 28 March 2015 04:15:55
Eccentricity: 0.0025066
inclination: 82.9437°
perigee height: 954 km
apogee height: 990 km
right ascension of ascending node: 322.6886°
argument of perigee: 343.8478°
revolutions per day: 13.77664317
mean anomaly at epoch: 130.2301°
orbit number at epoch: 11245

The dashed part of the orbit path shows where the satellite is in the earth's shadow,  

DLR